Retour au catalogue

CZ-3A DEB

ActifGTO
NORAD 35556·DEBRIS·🇨🇳 China

Lancé Feb 2, 2007 depuis Xichang Satellite Launch Center

Loading…

TLE

PériméSource: Space-Track

Époque: Sep 12, 2026, 07:39 UTC

1 35556U 07003Q   26255.31927622  .00000308  00000-0  33826-2 0  9991
2 35556  25.1560 229.7374 7175168 102.1552 339.7086  2.27237015 17452

Suivez CZ-3A DEB en temps réel avec AllMySat

Download on the App Store